Location: Mountain View
(37.3861°N, 122.0839°W)
Time: 01:56:21
(UTC-07:00)

OTV 5 (USA 277) - Visible Passes

Search period start: 20 April 2019 00:00
Search period end: 30 April 2019 00:00
Orbit: 310 x 325 km, 54.5° (Epoch: 16 April)

Date Brightness Start Highest point End Pass type
(mag) Time Alt. Az. Time Alt. Az. Time Alt. Az.
21 Apr ? 04:39:22 10° N 04:41:15 17° NE 04:43:07 10° E visible
22 Apr ? 04:53:40 11° NNW 04:56:09 44° NE 04:58:42 10° ESE visible
22 Apr ? 21:11:56 10° SW 21:14:38 66° SE 21:14:43 65° ESE visible
23 Apr ? 05:10:05 33° W 05:10:52 47° SW 05:13:26 10° SSE visible
23 Apr ? 21:26:51 10° WSW 21:29:24 34° NW 21:31:43 11° NNE visible
24 Apr ? 21:42:40 10° WNW 21:44:19 15° NNW 21:45:59 10° N visible
25 Apr ? 20:21:53 10° SW 20:24:35 63° NW 20:27:17 10° NE visible
26 Apr ? 20:37:13 10° W 20:39:26 22° NW 20:41:38 10° NNE visible
27 Apr ? 20:53:57 10° NW 20:54:27 10° NNW 20:54:55 10° NNW visible
